Flag for U.S.A. Weather past 2 weeks in Wailuku, Hawaii, U.S.A.

Now
72 °F

Clear.


Feels Like: 73 °F
Forecast: 68 / 83 °F
Wind: 10 mph from Northeast

Location: Kahului Airport

Current Time: Dec 19, 2014 at 3:05:54 AM

Latest Report: Dec 19, 2014 at 1:54 AM


Visibility: 10 mi

Pressure: 30.09 "Hg

Humidity: 78%

Dew point: 65 °F

Location of WailukuLocation

Historic Weather in Wailuku — Graph

°F

Wailuku temperature yesterday

Maximum temperature yesterday: 81 °F (at 1:54 PM)
Minimum temperature yesterday: 71 °F (at 5:54 AM)
Average temperature yesterday: 75 °F

Past Weeks' High & Low Weather Summary

 TemperatureHumidityPressure
High84 °F (Dec 5, 12:54 PM)94% (Dec 11, 3:04 AM)30.20 "Hg (Dec 11, 3:04 AM)
Low58 °F (Dec 7, 5:54 AM)43% (Dec 13, 1:54 PM)29.94 "Hg (Dec 5, 1:54 PM)
Average73 °F73%30.09 "Hg
* Reported Dec 4 1:43 AM — Dec 19 1:54 AM, Wailuku, Weather by CustomWeather, © 2014

Note: Actual official high and low records may vary slightly from our data, if they occured in-between our weather recording intervals... More about our weather records

Advertising

Wailuku weather history for previous 24 hours

 ConditionsComfort  
Time TempWeatherWind HumidityBarometerVisibility
1:54 AM
Dec 19
72 °FClear.10 mph78%30.09 "Hg10 mi
12:54 AM72 °FClear.7 mph76%30.13 "Hg10 mi
11:54 PM
Dec 18
73 °FPassing clouds.20 mph79%30.14 "Hg10 mi
10:54 PM73 °FPassing clouds.22 mph84%30.14 "Hg10 mi
9:54 PM73 °FPassing clouds.13 mph81%30.14 "Hg10 mi
8:54 PM72 °FLight rain. Passing clouds.18 mph87%30.14 "Hg10 mi
7:54 PM74 °FPassing clouds.15 mph76%30.13 "Hg10 mi
6:54 PM73 °FPassing clouds.21 mph79%30.10 "Hg10 mi
5:54 PM74 °FPassing clouds.16 mph76%30.07 "Hg10 mi
4:54 PM77 °FScattered clouds.20 mph71%30.05 "Hg10 mi
3:54 PM78 °FScattered clouds.21 mph69%30.05 "Hg10 mi
2:54 PM80 °FScattered clouds.23 mph62%30.04 "Hg10 mi
1:54 PM81 °FScattered clouds.20 mph62%30.05 "Hg10 mi
12:54 PM79 °FScattered clouds.17 mph69%30.09 "Hg10 mi
11:54 AM79 °FScattered clouds.23 mph69%30.13 "Hg10 mi
10:54 AM80 °FScattered clouds.18 mph64%30.16 "Hg10 mi
9:54 AM78 °FScattered clouds.6 mph69%30.16 "Hg10 mi
8:54 AM76 °FScattered clouds.17 mph74%30.18 "Hg10 mi
7:54 AM73 °FScattered clouds.No wind79%30.18 "Hg10 mi
6:54 AM71 °FPassing clouds.3 mph78%30.16 "Hg10 mi
5:54 AM71 °FPassing clouds.14 mph81%30.15 "Hg10 mi
4:54 AM72 °FClear.14 mph78%30.15 "Hg10 mi
3:54 AM72 °FClear.10 mph81%30.14 "Hg10 mi
Weather by CustomWeather, © 2014

See weather overviewHow to use our weather pages